Temperature
18 18 18 18 18 18 18 17 18 17 17 17 17 18 18 18 18 18 18 18 18 18 18 18 18 18 18 18 18 18 18 18 18 18 18 18 18 18 18 18 18 18 18
18 18 18 18 17 17 17 17 17 17 17 17 17 17 18 18 18 18 18 18 18 18 18 18 18 18 18 18 18 18 18 18 18 18 18 18 18 18 18 18 18 18 18
18 18 17 18 17 17 17 17 17 17 17 17 17 17 17 17 17 17 18 18 18 18 18 18 18 17 18 18 18 18 18 18 18 18 18 18 18 18 18 18 18 18 18
18 18 17 17 17 17 17 17 17 17 17 17 17 17 17 17 17 17 17 17 17 17 17 17 17 17 17 17 17 18 18 18 17 17 17 17 17 18 18 18 18 18 18
18 18 18 17 17 17 17 17 17 17 17 17 17 17 17 17 17 17 17 17 17 17 17 17 17 17 17 17 17 17 17 17 17 17 17 17 17 17 17 17 18 18 17
18 18 18 17 17 17 17 17 17 17 17 17 17 17 17 17 17 17 17 17 17 17 17 17 17 17 17 17 17 17 17 17 17 17 17 17 17 17 17 17 17 17 17
18 18 18 18 18 17 17 17 17 17 17 17 17 17 17 17 17 17 17 17 17 17 17 17 17 17 17 17 17 17 17 17 17 17 17 17 17 17 17 17 17 17 17
18 18 18 18 18 17 17 17 17 17 17 17 17 17 17 17 17 17 17 17 17 17 17 17 17 17 17 17 17 17 17 17 16 17 17 17 17 17 17 17 17 17 17
19 18 18 18 18 17 17 17 17 17 17 17 17 17 17 17 17 17 16 16 17 17 17 17 17 17 17 17 17 17 16 16 16 16 16 16 17 17 17 17 16 16 16
19 18 18 18 18 18 17 17 17 17 17 17 17 17 17 16 16 16 16 16 16 16 16 16 16 16 16 16 16 16 16 16 16 16 16 16 16 16 16 16 16 16 16
19 19 19 18 18 18 17 17 17 17 17 17 17 17 16 16 16 16 16 16 16 16 16 16 16 16 16 16 16 16 16 16 16 16 16 16 16 16 16 16 16 16 16
20 19 19 19 18 18 17 17 17 17 17 17 16 16 16 16 16 16 16 16 16 16 16 16 16 16 16 16 16 16 16 16 16 16 16 16 16 16 16 16 16 16 16
20 19 19 19 19 18 17 17 17 17 17 17 16 16 16 16 16 16 16 16 16 16 16 16 16 16 16 16 16 16 15 15 15 15 15 15 16 16 16 16 16 16 16
20 19 19 19 19 18 18 17 17 17 17 17 17 16 16 16 16 16 16 16 16 16 16 16 16 16 16 16 15 15 15 15 15 15 15 15 15 15 16 16 16 16 16
20 19 19 19 19 18 18 18 17 17 17 17 17 17 16 16 16 16 16 16 16 15 15 16 15 15 15 15 15 15 15 15 15 15 15 15 15 15 15 15 15 15 15
20 20 19 19 19 18 18 18 18 17 17 17 17 17 16 16 16 16 16 16 16 15 15 15 15 15 15 15 15 15 15 15 15 15 15 15 15 15 15 15 15 15 15
20 20 19 19 19 18 18 18 18 17 17 17 17 16 16 16 16 16 16 16 16 15 15 15 15 15 15 15 15 15 15 15 14 14 14 14 15 15 14 15 15 15 15
20 20 19 19 18 18 18 18 17 17 17 17 17 16 16 16 16 16 16 16 15 15 15 15 15 15 15 15 15 15 14 14 14 14 14 14 14 14 14 14 14 14 14
20 20 19 19 18 18 18 18 17 17 17 17 16 16 16 16 16 16 16 15 15 15 15 15 15 15 15 15 15 14 14 14 14 14 14 14 14 14 14 14 14 14 14
20 20 19 19 18 18 18 18 17 17 17 16 16 16 16 16 16 16 15 15 15 15 15 15 15 15 14 15 14 14 14 14 14 14 14 14 14 14 14 14 14 14 14
20 20 19 19 18 18 18 18 17 17 17 16 16 16 16 16 16 15 15 15 15 15 15 14 14 14 14 14 14 14 14 14 14 14 14 14 14 13 13 13 13 13 13
20 20 19 19 18 18 18 17 17 17 17 17 16 16 16 16 15 15 15 15 15 15 15 14 14 14 14 14 14 14 14 14 14 14 13 13 13 13 13 13 13 13 13
20 20 19 19 18 18 18 17 17 17 17 16 16 16 16 16 15 15 15 15 15 14 14 14 14 14 14 14 14 14 14 13 13 13 13 13 13 13 13 13 13 13 13
20 19 19 19 18 18 18 17 17 17 17 16 16 16 16 15 15 15 15 15 14 14 14 14 14 14 14 14 14 14 14 14 13 13 13 13 13 13 13 13 13 13 13
19 19 19 18 18 18 17 17 17 17 16 16 16 16 16 15 15 15 15 15 14 14 14 14 14 14 14 14 14 14 14 14 14 13 13 13 13 13 13 13 12 12 12
19 18 18 18 18 17 17 17 17 17 16 16 16 16 16 15 15 15 15 14 14 14 14 14 14 14 14 14 14 14 14 14 13 13 13 12 12 13 13 12 12 12 12
Wind_Speed
6 8 9 9 10 9 9 8 8 8 8 8 8 8 8 8 7 7 7 7 7 8 8 7 6 6 6 6 6 5 5 4 5 5 6 6 6 5 5 5 5 6 7
7 9 10 10 10 10 9 9 8 9 9 9 8 9 9 9 9 8 7 7 7 8 8 8 7 7 7 6 6 7 7 5 5 4 5 6 6 6 6 6 6 6 7
7 9 10 10 10 9 9 9 9 9 9 9 9 9 9 9 9 8 7 6 7 8 8 8 8 8 8 7 7 7 7 5 4 3 3 5 6 7 7 7 8 7 7
8 10 10 10 10 9 9 9 9 9 9 9 9 9 9 9 8 7 7 7 8 8 8 8 8 9 8 8 7 7 6 5 5 4 4 5 6 7 8 8 8 8 7
9 11 11 10 10 9 9 9 9 9 9 9 9 9 9 9 9 8 8 8 8 8 8 8 8 8 8 8 7 6 5 5 5 4 6 7 7 8 8 8 8 8 8
9 11 11 10 10 10 9 9 10 10 10 9 9 9 9 9 9 9 9 9 9 9 8 8 8 8 8 7 7 6 6 6 5 5 7 7 7 8 8 8 7 7 7
9 10 11 10 10 10 10 10 10 10 10 10 10 10 10 9 10 10 10 10 10 9 9 9 9 8 7 7 6 6 5 5 5 5 6 7 8 9 8 8 7 7 6
8 10 11 10 10 10 11 10 10 10 10 9 9 10 10 10 10 11 11 10 10 9 9 8 8 8 7 7 6 6 6 5 5 6 7 7 8 8 8 7 7 7 6
7 8 9 10 10 10 11 10 10 10 9 8 8 8 9 9 10 10 11 10 10 9 8 8 7 7 7 6 6 6 6 7 6 6 7 7 8 8 8 7 6 6 6
6 7 7 9 10 10 10 10 9 9 7 6 7 6 6 8 10 10 10 10 9 8 8 7 6 6 6 5 5 4 5 6 7 7 7 7 9 8 8 7 7 7 7
6 6 6 6 7 9 9 9 8 8 6 5 4 5 5 5 8 9 10 9 9 8 7 5 5 4 4 3 3 3 4 5 7 7 7 8 8 8 8 7 7 7 7
5 5 5 6 6 7 6 8 6 6 6 4 4 5 5 6 7 9 9 8 7 6 5 3 3 2 2 2 3 5 5 6 7 7 8 9 9 9 8 7 7 6 6
5 4 5 5 6 6 4 4 4 4 3 4 5 6 6 6 5 6 5 5 4 4 2 2 2 2 3 4 4 5 6 7 8 9 9 10 10 9 8 8 7 6 6
6 5 4 5 5 6 5 3 3 3 3 3 4 6 5 2 2 3 3 3 3 3 3 3 2 4 5 7 7 6 7 7 8 8 9 11 11 10 9 9 8 7 7
7 5 5 4 5 5 4 2 4 3 3 4 3 4 5 3 2 2 3 3 4 4 4 3 3 4 5 6 7 6 6 7 8 9 8 11 11 11 10 10 9 8 8
6 6 6 4 4 5 4 3 3 3 4 4 2 3 6 4 3 3 3 3 4 4 4 3 4 4 4 4 5 5 5 6 8 9 9 9 10 10 10 10 9 10 10
6 6 6 4 4 5 4 4 3 3 4 3 3 4 5 5 5 4 3 3 3 5 6 4 4 4 3 4 5 4 5 6 7 7 8 8 8 10 11 11 10 10 10
6 7 7 5 4 4 4 3 2 4 4 4 4 4 5 5 7 5 3 2 4 5 4 3 3 3 3 3 3 3 4 4 6 6 7 8 8 8 9 11 11 10 10
4 6 7 6 5 5 4 3 3 4 3 4 4 4 5 5 7 5 2 2 5 3 3 3 4 3 3 3 3 3 3 4 4 6 6 7 7 8 8 9 11 11 10
3 4 7 7 5 5 2 3 3 4 3 3 3 3 4 4 6 5 2 4 5 3 3 4 4 3 3 2 4 4 3 4 4 4 4 5 6 7 8 7 7 8 9
4 3 6 7 5 4 2 2 3 3 2 3 3 4 3 4 5 4 3 4 3 3 3 3 3 3 2 3 3 3 3 3 4 3 3 4 4 6 7 6 6 6 7
4 3 5 6 6 5 3 2 3 3 2 3 2 3 3 4 5 3 3 3 3 3 3 3 2 2 2 2 2 2 2 2 3 3 3 2 3 4 4 6 6 7 7
5 3 4 6 6 5 4 2 3 3 2 2 2 2 2 4 3 3 2 2 2 2 2 2 2 2 1 1 1 1 2 1 1 1 2 2 2 2 2 4 5 7 8
5 3 4 5 5 5 5 3 4 3 2 2 2 2 2 2 2 3 3 3 2 2 2 1 2 1 1 1 1 1 1 2 2 1 2 2 2 2 2 2 4 6 8
5 3 3 4 5 5 4 4 3 2 2 2 2 2 1 1 2 3 2 1 1 2 2 2 2 1 1 1 0 1 2 1 1 2 1 1 2 1 1 2 3 5 7
6 4 4 4 4 3 3 4 3 3 2 3 2 2 1 1 1 2 1 0 1 1 1 2 1 1 0 0 0 1 1 1 1 1 1 1 0 1 0 1 2 4 6
Wind_Direction
76 80 66 54 47 45 45 47 47 45 45 51 57 59 59 57 57 61 60 72 68 62 64 67 69 67 64 63 59 52 59 80 99 99 95 95 94 89 82 83 90 86 89
84 84 72 59 53 51 50 49 49 49 52 57 61 63 63 61 56 59 66 73 75 70 67 65 63 65 65 63 63 57 62 83 94 98 98 92 92 92 85 80 85 86 93
85 88 74 61 57 55 53 53 55 58 57 59 63 64 63 61 55 55 66 74 81 80 76 70 67 69 68 63 63 62 61 65 69 73 84 95 90 90 93 86 86 85 87
85 81 74 64 60 59 57 57 57 62 59 63 65 65 63 61 56 56 69 78 86 87 83 77 73 72 71 69 64 61 54 46 39 47 67 75 78 86 92 88 85 84 84
87 86 80 70 64 62 63 64 62 62 62 64 64 65 65 64 59 62 74 79 85 86 82 77 76 77 73 68 62 56 46 37 41 51 69 70 72 88 95 90 86 84 83
97 95 92 81 74 70 71 69 67 66 67 66 66 69 67 66 63 65 75 78 80 81 80 78 80 79 76 68 54 41 34 36 39 62 76 79 83 93 96 91 87 83 81
103 104 103 97 90 84 79 75 73 72 71 69 70 72 71 71 74 72 75 77 77 77 76 76 77 77 74 67 51 34 30 40 57 68 75 77 81 88 91 91 87 85 81
105 109 111 112 105 96 88 81 77 76 77 77 76 74 75 76 77 77 76 78 78 77 76 75 75 72 69 64 52 37 24 38 59 67 78 81 85 85 86 87 86 82 78
107 117 125 128 120 111 101 95 91 87 86 87 86 81 83 85 87 86 82 78 78 78 80 80 82 78 69 63 55 42 37 43 44 61 74 77 83 82 82 81 84 85 82
107 109 121 129 129 126 119 113 109 106 103 103 105 100 95 98 98 94 89 85 84 84 81 81 84 83 73 66 57 47 44 41 60 64 69 78 79 78 78 78 78 80 81
107 113 118 119 125 125 126 124 131 128 132 132 132 134 125 113 105 101 95 96 92 87 83 83 85 88 80 69 39 32 53 73 75 71 69 80 80 78 77 78 79 78 78
107 103 113 123 124 115 111 128 142 127 141 152 115 116 118 96 89 99 107 109 105 102 94 86 82 84 73 65 47 50 65 71 71 73 68 76 77 77 77 79 82 80 75
101 92 102 104 109 109 102 109 105 106 116 107 95 92 87 96 109 115 130 134 131 122 95 86 89 91 92 82 78 77 72 69 71 70 66 70 72 73 75 79 79 75 73
108 95 90 94 101 105 105 108 116 105 84 71 66 83 86 72 80 89 93 95 89 83 67 54 56 44 53 57 61 63 70 75 82 83 72 68 67 66 69 74 72 76 73
111 115 98 89 94 101 103 128 111 100 91 87 68 77 90 75 65 73 82 79 84 81 64 45 40 46 49 42 50 58 62 70 83 87 84 75 69 66 66 69 71 79 78
128 125 109 110 104 108 111 98 90 104 105 93 78 91 97 95 84 62 64 66 65 72 79 63 58 56 55 59 52 48 56 69 84 92 98 84 74 71 70 69 72 80 79
133 120 107 106 98 96 93 78 85 85 91 84 65 63 87 93 92 78 64 67 68 63 68 59 55 66 68 65 63 53 53 54 67 78 93 97 88 78 75 70 72 79 77
134 129 130 127 117 106 95 92 85 89 84 79 60 42 54 69 87 80 66 66 75 67 65 62 61 70 73 70 62 58 57 57 58 64 72 86 93 88 80 74 74 75 77
121 132 137 125 117 104 105 125 92 93 90 85 78 52 50 55 81 86 67 70 83 68 50 53 55 81 89 91 85 78 67 61 58 64 66 74 86 93 93 83 78 73 79
119 131 129 119 121 118 111 108 100 85 82 85 84 74 56 56 75 86 72 73 73 64 60 62 61 70 90 88 77 71 71 74 67 57 61 66 75 88 92 92 90 78 75
137 134 125 133 130 120 115 109 111 104 104 87 82 83 63 66 75 80 68 70 71 74 70 73 79 73 72 90 84 70 62 67 79 70 66 64 66 78 88 93 97 91 85
130 138 139 130 128 125 125 116 123 122 114 102 83 89 76 66 66 75 79 88 85 85 73 73 81 61 39 47 81 97 76 35 32 68 75 67 69 69 74 84 83 91 92
132 147 133 131 134 135 128 113 100 84 78 92 105 92 72 74 61 64 80 86 99 107 113 109 84 86 91 3 31 81 110 126 41 23 58 72 68 57 59 75 82 89 90
135 143 136 130 129 125 125 127 132 141 145 149 137 130 119 115 112 88 83 80 78 93 101 101 86 97 102 89 352 359 78 121 125 74 9 37 67 68 70 76 78 90 95
124 117 108 109 113 114 126 134 141 144 166 150 128 122 133 124 118 101 98 105 114 112 124 95 78 58 107 108 114 20 52 59 104 128 122 354 18 27 73 93 88 92 100
118 116 105 103 104 120 150 156 170 163 161 145 143 146 143 119 96 87 95 121 117 103 99 111 130 130 115 75 208 116 123 130 130 102 144 161 49 310 68 106 102 100 105
Height
1511 1509 1508 1507 1506 1505 1505 1505 1505 1505 1505 1505 1505 1505 1506 1506 1506 1506 1506 1507 1509 1510 1510 1511 1512 1512 1512 1513 1513 1512 1510 1509 1513 1516 1518 1519 1521 1522 1522 1523 1524 1525 1525
1512 1510 1509 1508 1507 1506 1506 1506 1506 1506 1506 1506 1506 1506 1506 1507 1507 1507 1507 1508 1509 1510 1511 1511 1512 1513 1513 1513 1513 1512 1510 1510 1514 1517 1519 1520 1521 1522 1523 1523 1524 1525 1525
1512 1511 1509 1509 1508 1507 1507 1507 1507 1507 1506 1507 1507 1507 1507 1507 1507 1507 1508 1508 1509 1510 1511 1511 1512 1513 1513 1514 1514 1514 1513 1514 1516 1518 1519 1521 1521 1522 1523 1524 1524 1525 1525
1513 1512 1511 1510 1509 1508 1508 1508 1508 1507 1507 1507 1508 1508 1508 1508 1508 1508 1508 1509 1510 1511 1512 1512 1513 1514 1514 1514 1515 1515 1516 1516 1517 1518 1520 1521 1522 1522 1523 1524 1524 1525 1525
1514 1513 1512 1511 1510 1509 1509 1509 1509 1509 1508 1508 1509 1509 1509 1509 1509 1509 1509 1510 1511 1512 1513 1513 1514 1514 1515 1515 1516 1516 1517 1518 1518 1519 1520 1521 1522 1523 1523 1524 1524 1525 1526
1515 1514 1513 1512 1511 1510 1510 1510 1510 1510 1510 1510 1510 1510 1510 1510 1510 1510 1510 1511 1512 1513 1513 1514 1514 1515 1515 1516 1517 1517 1518 1519 1519 1520 1521 1522 1522 1523 1523 1524 1525 1525 1526
1516 1515 1514 1513 1512 1512 1511 1511 1511 1511 1511 1511 1511 1511 1512 1512 1512 1512 1512 1512 1513 1513 1514 1515 1515 1516 1516 1517 1517 1518 1519 1519 1520 1521 1522 1522 1523 1523 1523 1524 1524 1525 1526
1518 1516 1515 1515 1514 1514 1513 1513 1513 1513 1513 1513 1513 1513 1513 1513 1514 1514 1513 1514 1514 1514 1515 1515 1516 1516 1517 1518 1518 1518 1519 1520 1520 1521 1521 1522 1522 1523 1523 1524 1524 1525 1525
1519 1518 1517 1516 1516 1515 1515 1515 1515 1515 1515 1515 1515 1515 1515 1515 1515 1515 1515 1515 1515 1516 1516 1516 1517 1517 1518 1518 1519 1519 1519 1520 1520 1521 1521 1522 1522 1523 1523 1524 1524 1524 1525
1520 1519 1519 1518 1518 1517 1517 1517 1517 1517 1517 1517 1517 1517 1517 1517 1517 1517 1517 1517 1517 1517 1517 1518 1518 1518 1519 1519 1519 1520 1520 1520 1520 1521 1521 1522 1522 1522 1523 1523 1524 1524 1525
1521 1521 1520 1520 1520 1520 1519 1519 1519 1519 1519 1519 1520 1520 1519 1519 1519 1519 1519 1519 1519 1519 1519 1519 1519 1520 1520 1520 1521 1521 1521 1521 1521 1521 1522 1522 1522 1522 1523 1523 1523 1524 1525
1522 1522 1522 1522 1522 1522 1522 1521 1521 1521 1522 1522 1522 1522 1522 1522 1522 1521 1521 1521 1520 1520 1520 1520 1521 1521 1521 1521 1522 1522 1522 1521 1521 1521 1522 1522 1522 1522 1523 1523 1523 1524 1524
1522 1523 1523 1523 1523 1523 1523 1524 1524 1523 1523 1524 1524 1523 1523 1523 1523 1523 1522 1522 1522 1522 1522 1522 1522 1522 1522 1522 1522 1522 1522 1522 1522 1522 1522 1522 1522 1523 1523 1523 1523 1523 1524
1523 1524 1524 1524 1524 1524 1524 1524 1525 1525 1525 1525 1525 1525 1525 1524 1524 1524 1524 1524 1523 1523 1523 1523 1523 1523 1523 1523 1524 1524 1523 1523 1523 1522 1523 1523 1523 1523 1523 1523 1523 1523 1523
1523 1524 1524 1525 1525 1525 1525 1525 1526 1526 1526 1526 1526 1526 1525 1525 1525 1525 1525 1525 1524 1524 1524 1523 1524 1524 1524 1524 1524 1524 1524 1524 1524 1523 1523 1523 1523 1523 1523 1523 1523 1523 1523
1523 1524 1524 1525 1526 1526 1526 1526 1527 1527 1527 1527 1527 1527 1526 1526 1526 1526 1526 1525 1525 1525 1525 1524 1524 1524 1524 1524 1525 1525 1525 1525 1524 1524 1523 1523 1524 1524 1524 1524 1523 1524 1524
1522 1523 1524 1525 1526 1526 1526 1527 1527 1527 1527 1528 1528 1528 1527 1527 1527 1526 1526 1526 1526 1526 1525 1525 1524 1524 1524 1525 1525 1525 1525 1526 1525 1525 1524 1524 1524 1525 1525 1524 1524 1524 1524
1522 1523 1524 1525 1526 1526 1527 1527 1528 1528 1528 1528 1528 1528 1528 1528 1528 1527 1527 1527 1527 1526 1525 1525 1524 1523 1524 1525 1525 1526 1526 1526 1526 1526 1526 1525 1525 1526 1525 1525 1525 1525 1525
1522 1523 1523 1524 1525 1526 1527 1527 1528 1528 1529 1529 1529 1529 1529 1529 1528 1527 1528 1527 1527 1526 1526 1525 1524 1523 1524 1525 1526 1526 1527 1527 1527 1527 1527 1527 1527 1527 1526 1526 1526 1526 1526
1521 1522 1523 1524 1525 1526 1527 1528 1528 1529 1529 1529 1530 1529 1529 1529 1529 1528 1528 1528 1527 1527 1526 1525 1524 1524 1525 1526 1526 1527 1527 1528 1528 1529 1529 1529 1528 1528 1528 1527 1527 1527 1527
1521 1522 1523 1523 1524 1526 1527 1527 1528 1529 1529 1530 1530 1530 1530 1530 1529 1529 1528 1528 1527 1527 1527 1526 1526 1526 1526 1526 1527 1527 1529 1529 1530 1530 1530 1530 1530 1530 1529 1529 1529 1528 1528
1520 1521 1522 1523 1524 1525 1526 1527 1528 1529 1529 1529 1530 1530 1530 1530 1530 1529 1529 1528 1528 1527 1527 1527 1527 1527 1527 1527 1528 1528 1529 1532 1531 1532 1531 1531 1531 1531 1531 1530 1530 1529 1528
1519 1521 1522 1522 1524 1525 1525 1527 1528 1528 1529 1529 1529 1530 1530 1530 1530 1529 1529 1528 1528 1528 1528 1527 1527 1528 1528 1528 1529 1530 1530 1531 1532 1533 1533 1533 1533 1532 1532 1532 1531 1531 1530
1518 1520 1521 1522 1523 1524 1525 1526 1527 1527 1528 1529 1529 1529 1529 1530 1529 1529 1529 1528 1528 1528 1528 1528 1528 1528 1528 1529 1529 1530 1531 1531 1532 1533 1534 1534 1534 1533 1533 1533 1532 1532 1531
1517 1519 1520 1521 1522 1523 1524 1525 1526 1527 1528 1528 1528 1529 1529 1529 1529 1528 1528 1528 1528 1528 1528 1528 1528 1528 1529 1529 1530 1530 1531 1532 1532 1532 1533 1534 1534 1534 1534 1533 1533 1532 1532
1516 1517 1519 1520 1521 1522 1523 1525 1525 1526 1527 1527 1527 1528 1528 1528 1528 1528 1528 1527 1528 1528 1528 1528 1528 1528 1529 1529 1530 1530 1531 1531 1532 1532 1533 1533 1533 1534 1534 1534 1533 1533 1532